Location: Unspecified
(0.0000°N, 0.0000°E)
Time: 20:34:47
(UTC+00:00)

Envisat - Pass Details

Date: 17 December 2017
Orbit: 764 x 766 km, 98.2° (Epoch: 18 December)

Event Time Altitude Azimuth Distance (km) Brightness Sun altitude
Rises 19:27:33 0° 150° (SSE) 3,230 6.2 -20.8°
Reaches altitude 10° 19:30:05 10° 140° (SE) 2,301 5.3 -21.4°
Enters shadow 19:31:20 16° 131° (SE) 1,889 4.8 -21.7°
